This is the latest recevied weather packets stored in our database for station/object KD8NVS-13. If no packets are shown the sender has not sent any weather packets the latest 1 day(s).
| Time | Temp. | Humidity | Pressure | Rain* | Wind** | Luminosity | Snow |
|---|---|---|---|---|---|---|---|
| 1777991143 | 18.33° C | 71% | 998.7 hPa | 0 mm | 0 m/s | 177 W/m² | - |
| 1777990840 | 17.78° C | 72% | 998.7 hPa | 0 mm | 1.34 m/s, 323° | 148 W/m² | - |
| 1777990537 | 17.78° C | 72% | 998.3 hPa | 0 mm | 0.89 m/s, 246° | 132 W/m² | - |
| 1777990234 | 17.78° C | 73% | 998.7 hPa | 0 mm | 0 m/s | 111 W/m² | - |
| 1777989931 | 17.78° C | 73% | 998.7 hPa | 0 mm | 1.34 m/s, 204° | 93 W/m² | - |
| 1777989628 | 18.33° C | 72% | 998.7 hPa | 0 mm | 1.34 m/s, 254° | 105 W/m² | - |
| 1777989324 | 17.78° C | 73% | 998.7 hPa | 0 mm | 0.45 m/s, 174° | 129 W/m² | - |
| 1777989020 | 17.78° C | 72% | 998.7 hPa | 0 mm | 0.89 m/s, 264° | 126 W/m² | - |
| 1777988716 | 18.33° C | 72% | 998.7 hPa | 0 mm | 0.45 m/s, 293° | 125 W/m² | - |
| 1777988414 | 18.33° C | 72% | 998.7 hPa | 0 mm | 0 m/s | 146 W/m² | - |
| 1777988111 | 18.33° C | 73% | 998.7 hPa | 0 mm | 0.89 m/s, 276° | 265 W/m² | - |
| 1777987806 | 18.33° C | 74% | 998.7 hPa | 0 mm | 1.34 m/s, 276° | 204 W/m² | - |
| 1777987503 | 17.78° C | 74% | 998.7 hPa | 0 mm | 0.89 m/s, 276° | 179 W/m² | - |
| 1777987201 | 17.78° C | 76% | 998.3 hPa | 0 mm | 0.89 m/s, 276° | 185 W/m² | - |
| 1777986897 | 17.78° C | 76% | 998.7 hPa | 0 mm | 1.34 m/s, 317° | 165 W/m² | - |
| 1777986595 | 17.22° C | 76% | 998.7 hPa | 0 mm | 0 m/s | 206 W/m² | - |
| 1777986293 | 17.22° C | 77% | 998.7 hPa | 0 mm | 0.89 m/s, 168° | 200 W/m² | - |
| 1777985990 | 17.22° C | 77% | 998.7 hPa | 0 mm | 0.89 m/s, 252° | 156 W/m² | - |
| 1777985688 | 16.67° C | 77% | 998.3 hPa | 0 mm | 0.89 m/s, 264° | 155 W/m² | - |
| 1777985384 | 16.67° C | 79% | 998.3 hPa | 0 mm | 0.89 m/s, 208° | 196 W/m² | - |
| 1777985081 | 16.11° C | 79% | 998.7 hPa | 0 mm | 0.89 m/s, 234° | 126 W/m² | - |
| 1777984777 | 16.11° C | 80% | 998.3 hPa | 0 mm | 0.89 m/s, 253° | 81 W/m² | - |
| 1777984474 | 16.11° C | 80% | 998 hPa | 0 mm | 0 m/s | 40 W/m² | - |
| 1777984170 | 16.11° C | 80% | 998.3 hPa | 0 mm | 0.89 m/s, 254° | 18 W/m² | - |
| 1777983867 | 16.11° C | 80% | 998.3 hPa | 0 mm | 0.89 m/s, 228° | 20 W/m² | - |
* Rain latest hour (hover to see other rain measurements)
** Current wind speed in m/s (hover to see current wind gust speed)